WMT9EL LPMA-LMML

Flight info

Callsign WMT9EL
Flight time 4h 3m
Altitude 33000
Route GOSGA UQ143 ORTIS N728 TFN T274 GDV/N0462F320 N871 KORAL UG5 SONSO UN871 ESS UG5 BARAM/N0459F340 UG5 SAK UR975 DONAS/N0458F330 UR975 FES UA411 ORSUP UZ888 SACDA/N0456F350 UZ888 DIMAO UL874 OMENI DCT NEVNA DCT GZO
Aircraft A21N/M-SDE3FGHIRWY/LB1

Departure

Time 2026-05-07 08:08
Airport Cristiano Ronaldo International Airport (LPMA)

Arrival

Time 2026-05-07 12:12
Airport Malta International Airport (LMML)
Time Latitude Longitude Altitude Speed Heading
2026-05-07 07:45 32.69362 -16.77662 194 ft 0 kts 135°
2026-05-07 07:59 32.69363 -16.77664 194 ft 2 kts 135°
2026-05-07 08:00 32.69374 -16.77676 195 ft 2 kts 148°
2026-05-07 08:00 32.69388 -16.77684 195 ft 2 kts 161°
2026-05-07 08:00 32.69402 -16.77688 196 ft 2 kts 175°
2026-05-07 08:00 32.69418 -16.77688 197 ft 2 kts 188°
2026-05-07 08:01 32.69432 -16.77683 197 ft 2 kts 202°
2026-05-07 08:01 32.69445 -16.77675 198 ft 2 kts 215°
2026-05-07 08:01 32.69454 -16.77667 198 ft 0 kts 225°
2026-05-07 08:01 32.69458 -16.77662 199 ft 0 kts 226°
2026-05-07 08:03 32.69455 -16.77665 198 ft 1 kts 227°
2026-05-07 08:03 32.69434 -16.77687 197 ft 6 kts 216°
2026-05-07 08:04 32.69388 -16.77732 195 ft 10 kts 226°
2026-05-07 08:04 32.69334 -16.77799 191 ft 11 kts 226°
2026-05-07 08:04 32.69288 -16.77881 186 ft 13 kts 260°
2026-05-07 08:04 32.69286 -16.77994 185 ft 14 kts 266°
2026-05-07 08:05 32.69228 -16.78100 178 ft 18 kts 224°
2026-05-07 08:05 32.69127 -16.78219 168 ft 22 kts 225°
2026-05-07 08:05 32.69036 -16.78328 158 ft 16 kts 225°
2026-05-07 08:05 32.68959 -16.78395 155 ft 13 kts 194°
2026-05-07 08:06 32.68892 -16.78417 151 ft 8 kts 221°
2026-05-07 08:06 32.68890 -16.78465 149 ft 5 kts 322°
2026-05-07 08:06 32.68922 -16.78462 150 ft 4 kts 43°
2026-05-07 08:06 32.68927 -16.78456 151 ft 1 kts 46°
2026-05-07 08:07 32.68926 -16.78457 151 ft 0 kts 46°
2026-05-07 08:07 32.68934 -16.78447 152 ft 15 kts 46°
2026-05-07 08:07 32.69189 -16.78147 175 ft 85 kts 44°
2026-05-07 08:07 32.69768 -16.77469 206 ft 145 kts 44°
2026-05-07 08:08 32.70623 -16.76473 180 ft 194 kts 44°
2026-05-07 08:08 32.71612 -16.75324 772 ft 200 kts 44°
2026-05-07 08:08 32.72345 -16.73949 1482 ft 205 kts 75°
2026-05-07 08:08 32.72218 -16.72315 2266 ft 205 kts 114°
2026-05-07 08:09 32.71171 -16.71136 2601 ft 219 kts 157°
2026-05-07 08:09 32.69612 -16.71058 2832 ft 235 kts 198°
2026-05-07 08:09 32.68079 -16.71858 3083 ft 251 kts 203°
2026-05-07 08:09 32.66339 -16.72301 3374 ft 266 kts 176°
2026-05-07 08:10 32.64471 -16.72010 3820 ft 274 kts 168°
2026-05-07 08:10 32.62606 -16.71564 4446 ft 277 kts 168°
2026-05-07 08:10 32.60722 -16.71142 5074 ft 279 kts 169°
2026-05-07 08:10 32.58781 -16.70760 5713 ft 281 kts 171°
2026-05-07 08:11 32.56865 -16.70421 6320 ft 283 kts 172°
2026-05-07 08:11 32.54916 -16.70101 6921 ft 285 kts 172°
2026-05-07 08:11 32.52938 -16.69789 7505 ft 288 kts 173°
2026-05-07 08:11 32.50949 -16.69484 8081 ft 291 kts 173°
2026-05-07 08:12 32.48942 -16.69179 8654 ft 293 kts 173°
2026-05-07 08:12 32.46920 -16.68875 9200 ft 296 kts 173°
2026-05-07 08:12 32.44861 -16.68565 9749 ft 298 kts 173°
2026-05-07 08:12 32.42815 -16.68258 10267 ft 301 kts 174°
2026-05-07 08:13 32.40699 -16.67942 10552 ft 313 kts 174°
2026-05-07 08:13 32.38482 -16.67611 10791 ft 326 kts 174°
2026-05-07 08:13 32.36201 -16.67272 11022 ft 339 kts 174°
2026-05-07 08:13 32.33815 -16.66916 11267 ft 351 kts 174°
2026-05-07 08:14 32.31348 -16.66548 11485 ft 363 kts 174°
2026-05-07 08:14 32.28821 -16.66172 11696 ft 374 kts 174°
2026-05-07 08:14 32.26173 -16.65778 11900 ft 386 kts 174°
2026-05-07 08:14 32.23497 -16.65380 12133 ft 395 kts 174°
2026-05-07 08:15 32.20746 -16.64972 12541 ft 399 kts 174°
2026-05-07 08:15 32.17988 -16.64563 12989 ft 402 kts 174°
2026-05-07 08:15 32.15212 -16.64151 13411 ft 405 kts 174°
2026-05-07 08:15 32.12420 -16.63737 13820 ft 408 kts 174°
2026-05-07 08:16 32.09605 -16.63319 14217 ft 411 kts 174°
2026-05-07 08:16 32.06759 -16.62919 14610 ft 414 kts 175°
2026-05-07 08:16 32.03863 -16.62588 15004 ft 417 kts 176°
2026-05-07 08:16 32.01008 -16.62284 15378 ft 420 kts 176°
2026-05-07 08:17 31.98062 -16.61971 15749 ft 423 kts 176°
2026-05-07 08:17 31.95152 -16.61659 16098 ft 426 kts 176°
2026-05-07 08:17 31.92211 -16.61338 16448 ft 429 kts 176°
2026-05-07 08:17 31.89218 -16.61011 16801 ft 431 kts 176°
2026-05-07 08:18 31.86235 -16.60683 17129 ft 434 kts 176°
2026-05-07 08:18 31.83205 -16.60350 17459 ft 437 kts 176°
2026-05-07 08:18 31.80182 -16.60018 17779 ft 439 kts 176°
2026-05-07 08:18 31.77161 -16.59686 18084 ft 442 kts 176°
2026-05-07 08:19 31.74074 -16.59346 18398 ft 444 kts 176°
2026-05-07 08:19 31.70994 -16.59007 18707 ft 446 kts 176°
2026-05-07 08:19 31.67910 -16.58668 19014 ft 448 kts 176°
2026-05-07 08:19 31.64803 -16.58327 19310 ft 450 kts 176°
2026-05-07 08:20 31.61718 -16.57990 19598 ft 452 kts 176°
2026-05-07 08:20 31.58557 -16.57644 19885 ft 454 kts 176°
2026-05-07 08:20 31.55424 -16.57302 20165 ft 456 kts 176°
2026-05-07 08:20 31.52247 -16.56955 20445 ft 457 kts 176°
2026-05-07 08:21 31.49103 -16.56613 20713 ft 459 kts 177°
2026-05-07 08:21 31.45911 -16.56266 20982 ft 461 kts 177°
2026-05-07 08:21 31.42737 -16.55919 21238 ft 462 kts 177°
2026-05-07 08:21 31.39538 -16.55572 21489 ft 464 kts 177°
2026-05-07 08:22 31.36316 -16.55233 21741 ft 466 kts 177°
2026-05-07 08:22 31.33073 -16.54897 21981 ft 467 kts 177°
2026-05-07 08:22 31.29850 -16.54566 22223 ft 469 kts 177°
2026-05-07 08:22 31.26571 -16.54228 22456 ft 470 kts 178°
2026-05-07 08:23 31.23355 -16.53898 22672 ft 472 kts 178°
2026-05-07 08:23 31.20050 -16.53558 22901 ft 473 kts 178°
2026-05-07 08:23 31.16778 -16.53221 23112 ft 475 kts 178°
2026-05-07 08:23 31.13503 -16.52885 23324 ft 477 kts 178°
2026-05-07 08:24 31.10170 -16.52542 23520 ft 478 kts 178°
2026-05-07 08:24 31.06877 -16.52205 23723 ft 480 kts 178°
2026-05-07 08:24 31.03561 -16.51864 23923 ft 481 kts 178°
2026-05-07 08:24 31.00204 -16.51521 24110 ft 483 kts 178°
2026-05-07 08:25 30.96882 -16.51182 24314 ft 484 kts 178°
2026-05-07 08:25 30.93509 -16.50837 24509 ft 485 kts 178°
2026-05-07 08:25 30.90147 -16.50494 24700 ft 486 kts 178°
2026-05-07 08:25 30.86797 -16.50150 24929 ft 486 kts 178°
2026-05-07 08:26 30.80089 -16.49465 25409 ft 486 kts 178°
2026-05-07 08:26 30.76725 -16.49123 25638 ft 485 kts 178°
2026-05-07 08:26 30.73347 -16.48779 25859 ft 485 kts 177°
2026-05-07 08:27 30.70005 -16.48438 26073 ft 486 kts 178°
2026-05-07 08:27 30.66632 -16.48095 26282 ft 486 kts 178°
2026-05-07 08:27 30.63285 -16.47755 26498 ft 486 kts 177°
2026-05-07 08:27 30.59917 -16.47414 26720 ft 486 kts 177°
2026-05-07 08:28 30.56548 -16.47072 26945 ft 485 kts 177°
2026-05-07 08:28 30.53175 -16.46730 27158 ft 485 kts 177°
2026-05-07 08:28 30.49833 -16.46392 27347 ft 486 kts 177°
2026-05-07 08:28 30.46497 -16.46054 27552 ft 486 kts 177°
2026-05-07 08:29 30.43107 -16.45712 27776 ft 485 kts 177°
2026-05-07 08:29 30.39787 -16.45377 27986 ft 485 kts 177°
2026-05-07 08:29 30.36391 -16.45034 28184 ft 486 kts 177°
2026-05-07 08:29 30.33049 -16.44695 28393 ft 486 kts 177°
2026-05-07 08:30 30.29691 -16.44354 28618 ft 485 kts 177°
2026-05-07 08:30 30.26350 -16.44015 28839 ft 485 kts 177°
2026-05-07 08:30 30.22974 -16.43673 29061 ft 485 kts 177°
2026-05-07 08:30 30.19620 -16.43335 29284 ft 484 kts 177°
2026-05-07 08:31 30.16273 -16.42997 29485 ft 485 kts 177°
2026-05-07 08:31 30.12930 -16.42661 29664 ft 485 kts 177°
2026-05-07 08:31 30.09592 -16.42326 29854 ft 486 kts 177°
2026-05-07 08:31 30.06211 -16.41987 30070 ft 485 kts 177°
2026-05-07 08:32 30.02878 -16.41653 30292 ft 485 kts 177°
2026-05-07 08:32 29.99487 -16.41312 30500 ft 485 kts 177°
2026-05-07 08:32 29.96160 -16.40979 30703 ft 485 kts 177°
2026-05-07 08:32 29.92784 -16.40641 30910 ft 485 kts 177°
2026-05-07 08:33 29.89431 -16.40305 31106 ft 485 kts 177°
2026-05-07 08:33 29.86069 -16.39970 31284 ft 485 kts 177°
2026-05-07 08:33 29.82732 -16.39637 31426 ft 486 kts 177°
2026-05-07 08:33 29.79345 -16.39300 31561 ft 487 kts 177°
2026-05-07 08:34 29.76006 -16.38969 31706 ft 488 kts 177°
2026-05-07 08:34 29.72637 -16.38633 31853 ft 488 kts 177°
2026-05-07 08:34 29.69225 -16.38294 31985 ft 489 kts 177°
2026-05-07 08:34 29.65853 -16.37960 32122 ft 490 kts 177°
2026-05-07 08:35 29.62449 -16.37623 32268 ft 491 kts 178°
2026-05-07 08:35 29.59076 -16.37287 32397 ft 492 kts 178°
2026-05-07 08:35 29.55657 -16.36944 32523 ft 493 kts 177°
2026-05-07 08:35 29.52239 -16.36601 32659 ft 493 kts 177°
2026-05-07 08:36 29.48814 -16.36258 32798 ft 494 kts 178°
2026-05-07 08:36 29.45427 -16.35919 32917 ft 495 kts 178°
2026-05-07 08:36 29.41988 -16.35576 33025 ft 496 kts 178°
2026-05-07 08:36 29.38566 -16.35236 33029 ft 496 kts 178°
2026-05-07 08:37 29.31685 -16.34551 33033 ft 496 kts 178°
2026-05-07 08:37 29.24823 -16.33869 33034 ft 496 kts 178°
2026-05-07 08:38 29.17980 -16.33192 33034 ft 496 kts 178°
2026-05-07 08:38 29.11115 -16.32514 33034 ft 496 kts 178°
2026-05-07 08:39 29.04284 -16.31839 33034 ft 495 kts 178°
2026-05-07 08:39 28.97381 -16.31159 33034 ft 496 kts 178°
2026-05-07 08:40 28.90550 -16.30487 33034 ft 496 kts 178°
2026-05-07 08:40 28.83668 -16.29811 33033 ft 496 kts 178°
2026-05-07 08:41 28.76803 -16.29138 33033 ft 497 kts 178°
2026-05-07 08:41 28.69903 -16.28464 33034 ft 498 kts 178°
2026-05-07 08:42 28.63048 -16.27722 33029 ft 500 kts 173°
2026-05-07 08:42 28.56392 -16.25280 33033 ft 506 kts 153°
2026-05-07 08:43 28.50752 -16.20587 33034 ft 506 kts 133°
2026-05-07 08:43 28.46608 -16.14232 33037 ft 503 kts 119°
2026-05-07 08:44 28.43022 -16.07424 33035 ft 503 kts 118°
2026-05-07 08:44 28.39407 -16.00645 33034 ft 503 kts 119°
2026-05-07 08:45 28.35725 -15.93864 33034 ft 504 kts 119°
2026-05-07 08:45 28.32019 -15.87084 33034 ft 504 kts 119°
2026-05-07 08:46 28.28332 -15.80352 33034 ft 504 kts 119°
2026-05-07 08:46 28.24622 -15.73591 33034 ft 504 kts 119°
2026-05-07 08:47 28.20918 -15.66851 33034 ft 504 kts 119°
2026-05-07 08:47 28.17216 -15.60129 33035 ft 503 kts 119°
2026-05-07 08:48 28.13551 -15.53388 33029 ft 501 kts 115°
2026-05-07 08:48 28.12169 -15.49798 33030 ft 496 kts 103°
2026-05-07 08:48 28.11385 -15.46017 33032 ft 489 kts 92°
2026-05-07 08:49 28.11220 -15.42255 33033 ft 481 kts 81°
2026-05-07 08:49 28.11644 -15.38509 33034 ft 473 kts 70°
2026-05-07 08:49 28.14045 -15.31776 33033 ft 456 kts 52°
2026-05-07 08:50 28.17513 -15.25792 33035 ft 454 kts 50°
2026-05-07 08:50 28.21031 -15.19827 33034 ft 454 kts 50°
2026-05-07 08:51 28.24493 -15.13878 33034 ft 454 kts 50°
2026-05-07 08:51 28.27945 -15.07905 33034 ft 455 kts 50°
2026-05-07 08:52 28.31412 -15.01888 33035 ft 454 kts 50°
2026-05-07 08:52 28.34868 -14.95874 33034 ft 454 kts 50°
2026-05-07 08:53 28.38305 -14.89890 33034 ft 454 kts 50°
2026-05-07 08:53 28.41755 -14.83869 33034 ft 455 kts 50°
2026-05-07 08:54 28.45200 -14.77849 33034 ft 455 kts 50°
2026-05-07 08:54 28.48623 -14.71860 33034 ft 455 kts 50°
2026-05-07 08:55 28.52060 -14.65835 33034 ft 455 kts 50°
2026-05-07 08:55 28.55517 -14.59769 33034 ft 454 kts 50°
2026-05-07 08:56 28.58938 -14.53758 33034 ft 454 kts 50°
2026-05-07 08:56 28.62364 -14.47729 33034 ft 454 kts 50°
2026-05-07 08:57 28.65774 -14.41720 33034 ft 454 kts 50°
2026-05-07 08:57 28.69205 -14.35665 33034 ft 454 kts 50°
2026-05-07 08:58 28.72606 -14.29654 33033 ft 454 kts 51°
2026-05-07 08:58 28.76038 -14.23579 33034 ft 454 kts 51°
2026-05-07 08:59 28.79447 -14.17536 33034 ft 454 kts 51°
2026-05-07 08:59 28.82853 -14.11488 33034 ft 454 kts 51°
2026-05-07 09:00 28.86255 -14.05442 33034 ft 454 kts 51°
2026-05-07 09:00 28.89671 -13.99360 33034 ft 454 kts 51°
2026-05-07 09:01 28.93065 -13.93315 33034 ft 456 kts 51°
2026-05-07 09:01 28.96468 -13.87234 33034 ft 455 kts 51°
2026-05-07 09:02 28.99888 -13.81115 33034 ft 455 kts 51°
2026-05-07 09:02 29.03275 -13.75048 33034 ft 455 kts 51°
2026-05-07 09:03 29.06687 -13.68927 33034 ft 455 kts 51°
2026-05-07 09:03 29.10080 -13.62831 33034 ft 455 kts 51°
2026-05-07 09:04 29.13479 -13.56716 33035 ft 455 kts 51°
2026-05-07 09:04 29.16884 -13.50646 33034 ft 453 kts 49°
2026-05-07 09:05 29.20489 -13.44732 33034 ft 453 kts 49°
2026-05-07 09:05 29.24100 -13.38849 33034 ft 453 kts 49°
2026-05-07 09:06 29.27705 -13.32959 33033 ft 453 kts 49°
2026-05-07 09:06 29.31309 -13.27057 33034 ft 453 kts 49°
2026-05-07 09:07 29.34922 -13.21126 33034 ft 453 kts 49°
2026-05-07 09:07 29.38329 -13.15526 33034 ft 452 kts 49°
2026-05-07 09:08 29.41939 -13.09586 33034 ft 452 kts 49°
2026-05-07 09:08 29.45536 -13.03656 33034 ft 452 kts 49°
2026-05-07 09:09 29.49111 -12.97753 33034 ft 452 kts 49°
2026-05-07 09:09 29.52715 -12.91796 33033 ft 453 kts 49°
2026-05-07 09:10 29.56284 -12.85887 33034 ft 452 kts 50°
2026-05-07 09:10 29.59858 -12.79962 33034 ft 452 kts 50°
2026-05-07 09:11 29.63437 -12.74018 33034 ft 452 kts 50°
2026-05-07 09:11 29.67020 -12.68067 33015 ft 458 kts 50°
2026-05-07 09:12 29.70685 -12.61966 33029 ft 467 kts 51°
2026-05-07 09:12 29.74406 -12.55741 33035 ft 476 kts 51°
2026-05-07 09:13 29.78167 -12.49393 33035 ft 483 kts 51°
2026-05-07 09:13 29.81945 -12.42995 33034 ft 483 kts 51°
2026-05-07 09:14 29.85715 -12.36605 33034 ft 483 kts 51°
2026-05-07 09:14 29.89480 -12.30213 33033 ft 484 kts 51°
2026-05-07 09:15 29.93252 -12.23801 33034 ft 483 kts 51°
2026-05-07 09:15 29.97027 -12.17371 33034 ft 483 kts 51°
2026-05-07 09:16 30.00774 -12.10978 33034 ft 483 kts 51°
2026-05-07 09:16 30.04551 -12.04588 33034 ft 483 kts 51°
2026-05-07 09:17 30.08359 -11.98165 33034 ft 483 kts 51°
2026-05-07 09:17 30.12142 -11.91767 33034 ft 483 kts 51°
2026-05-07 09:18 30.15909 -11.85380 33034 ft 483 kts 51°
2026-05-07 09:18 30.19691 -11.78957 33034 ft 483 kts 51°
2026-05-07 09:19 30.23472 -11.72523 33034 ft 483 kts 51°
2026-05-07 09:19 30.27228 -11.66123 33034 ft 483 kts 51°
2026-05-07 09:20 30.30994 -11.59696 33034 ft 482 kts 51°
2026-05-07 09:20 30.34762 -11.53252 33034 ft 482 kts 51°
2026-05-07 09:21 30.38509 -11.46837 33034 ft 482 kts 51°
2026-05-07 09:21 30.42248 -11.40423 33014 ft 481 kts 51°
2026-05-07 09:22 30.46000 -11.33976 32977 ft 482 kts 52°
2026-05-07 09:22 30.49731 -11.27556 32961 ft 482 kts 52°
2026-05-07 09:23 30.53460 -11.21128 32955 ft 482 kts 52°
2026-05-07 09:23 30.57197 -11.14677 32953 ft 482 kts 52°
2026-05-07 09:24 30.60928 -11.08224 32953 ft 481 kts 52°
2026-05-07 09:24 30.64644 -11.01790 32953 ft 481 kts 52°
2026-05-07 09:25 30.68374 -10.95319 32953 ft 480 kts 52°
2026-05-07 09:25 30.72087 -10.88865 32953 ft 480 kts 52°
2026-05-07 09:26 30.75768 -10.82459 32953 ft 480 kts 52°
2026-05-07 09:26 30.79422 -10.76090 32953 ft 479 kts 52°
2026-05-07 09:27 30.83049 -10.69757 32953 ft 479 kts 52°
2026-05-07 09:28 30.88635 -10.59982 32953 ft 479 kts 52°
2026-05-07 09:28 30.92341 -10.53486 32953 ft 479 kts 52°
2026-05-07 09:29 30.96018 -10.47027 32952 ft 479 kts 52°
2026-05-07 09:29 30.99722 -10.40511 32952 ft 479 kts 52°
2026-05-07 09:30 31.03380 -10.34065 32951 ft 479 kts 52°
2026-05-07 09:30 31.07065 -10.27563 32953 ft 479 kts 52°
2026-05-07 09:31 31.10607 -10.21302 32954 ft 479 kts 52°
2026-05-07 09:31 31.14273 -10.14807 32953 ft 480 kts 52°
2026-05-07 09:32 31.17947 -10.08291 32953 ft 480 kts 52°
2026-05-07 09:32 31.21615 -10.01774 32953 ft 480 kts 52°
2026-05-07 09:33 31.25285 -9.95240 32954 ft 478 kts 52°
2026-05-07 09:33 31.28952 -9.88700 32953 ft 477 kts 52°
2026-05-07 09:34 31.32575 -9.82226 32952 ft 478 kts 52°
2026-05-07 09:34 31.36267 -9.75715 32952 ft 477 kts 50°
2026-05-07 09:35 31.40393 -9.69653 32953 ft 472 kts 43°
2026-05-07 09:35 31.45016 -9.64285 32953 ft 467 kts 36°
2026-05-07 09:36 31.50049 -9.59501 32953 ft 465 kts 32°
2026-05-07 09:36 31.55150 -9.54831 32953 ft 465 kts 32°
2026-05-07 09:37 31.60256 -9.50133 32953 ft 465 kts 32°
2026-05-07 09:37 31.65346 -9.45431 32953 ft 465 kts 32°
2026-05-07 09:38 31.70436 -9.40717 32953 ft 465 kts 32°
2026-05-07 09:38 31.75502 -9.36018 32953 ft 465 kts 33°
2026-05-07 09:39 31.80580 -9.31301 32952 ft 465 kts 33°
2026-05-07 09:39 31.85639 -9.26592 32955 ft 465 kts 33°
2026-05-07 09:39 31.88214 -9.24194 33077 ft 466 kts 33°
2026-05-07 09:40 31.90726 -9.21852 33283 ft 464 kts 33°
2026-05-07 09:40 31.93255 -9.19492 33499 ft 462 kts 33°
2026-05-07 09:40 31.95790 -9.17125 33685 ft 462 kts 33°
2026-05-07 09:40 31.98319 -9.14764 33851 ft 461 kts 33°
2026-05-07 09:41 32.00816 -9.12428 34010 ft 461 kts 33°
2026-05-07 09:41 32.03353 -9.10051 34155 ft 461 kts 33°
2026-05-07 09:41 32.05843 -9.07720 34297 ft 461 kts 33°
2026-05-07 09:41 32.08382 -9.05343 34432 ft 461 kts 33°
2026-05-07 09:42 32.10873 -9.03008 34568 ft 461 kts 33°
2026-05-07 09:42 32.13379 -9.00658 34722 ft 461 kts 33°
2026-05-07 09:42 32.15876 -8.98312 34864 ft 461 kts 33°
2026-05-07 09:43 32.20893 -8.93592 34948 ft 460 kts 33°
2026-05-07 09:43 32.25902 -8.88877 34951 ft 460 kts 33°
2026-05-07 09:44 32.30945 -8.84129 34952 ft 461 kts 33°
2026-05-07 09:44 32.35948 -8.79408 34952 ft 461 kts 33°
2026-05-07 09:45 32.40958 -8.74670 34952 ft 460 kts 33°
2026-05-07 09:45 32.45931 -8.69961 34952 ft 460 kts 33°
2026-05-07 09:46 32.50920 -8.65227 34952 ft 460 kts 33°
2026-05-07 09:46 32.55905 -8.60493 34952 ft 460 kts 33°
2026-05-07 09:47 32.60909 -8.55732 34952 ft 460 kts 33°
2026-05-07 09:47 32.65897 -8.50978 34951 ft 460 kts 33°
2026-05-07 09:48 32.70880 -8.46221 34952 ft 461 kts 33°
2026-05-07 09:48 32.75893 -8.41429 34952 ft 461 kts 33°
2026-05-07 09:49 32.80891 -8.36653 34952 ft 461 kts 33°
2026-05-07 09:49 32.85892 -8.31863 34951 ft 461 kts 33°
2026-05-07 09:50 32.90909 -8.27049 34952 ft 461 kts 33°
2026-05-07 09:50 32.95895 -8.22254 34952 ft 461 kts 33°
2026-05-07 09:51 33.00859 -8.17476 34952 ft 461 kts 33°
2026-05-07 09:51 33.05848 -8.12676 34952 ft 461 kts 33°
2026-05-07 09:52 33.10858 -8.07842 34953 ft 461 kts 33°
2026-05-07 09:52 33.15868 -8.03002 34952 ft 461 kts 33°
2026-05-07 09:53 33.20839 -7.98191 34952 ft 461 kts 33°
2026-05-07 09:53 33.25843 -7.93337 34952 ft 460 kts 33°
2026-05-07 09:54 33.30812 -7.88511 34952 ft 460 kts 33°
2026-05-07 09:54 33.35778 -7.83680 34952 ft 460 kts 33°
2026-05-07 09:55 33.40745 -7.78840 34952 ft 460 kts 33°
2026-05-07 09:55 33.45692 -7.73908 34950 ft 463 kts 37°
2026-05-07 09:56 33.49923 -7.67985 34951 ft 474 kts 51°
2026-05-07 09:56 33.52966 -7.60872 34952 ft 484 kts 65°
2026-05-07 09:57 33.54660 -7.52955 34953 ft 490 kts 75°
2026-05-07 09:57 33.55897 -7.44944 34952 ft 490 kts 76°
2026-05-07 09:58 33.57156 -7.36897 34952 ft 490 kts 75°
2026-05-07 09:58 33.58444 -7.28845 34951 ft 489 kts 76°
2026-05-07 09:59 33.59733 -7.20809 34952 ft 489 kts 76°
2026-05-07 09:59 33.61014 -7.12794 34952 ft 488 kts 76°
2026-05-07 10:00 33.62286 -7.04795 34960 ft 488 kts 76°
2026-05-07 10:00 33.63561 -6.96735 34967 ft 488 kts 76°
2026-05-07 10:01 33.64821 -6.88742 34970 ft 487 kts 76°
2026-05-07 10:01 33.66098 -6.80714 34971 ft 487 kts 75°
2026-05-07 10:02 33.67365 -6.72705 34971 ft 487 kts 75°
2026-05-07 10:02 33.68630 -6.64660 34971 ft 487 kts 75°
2026-05-07 10:03 33.69881 -6.56664 34972 ft 486 kts 75°
2026-05-07 10:03 33.71093 -6.48679 34971 ft 486 kts 76°
2026-05-07 10:04 33.72295 -6.40665 34972 ft 486 kts 75°
2026-05-07 10:04 33.73497 -6.32631 34969 ft 485 kts 76°
2026-05-07 10:05 33.74714 -6.24632 34971 ft 485 kts 76°
2026-05-07 10:05 33.75935 -6.16600 34971 ft 486 kts 76°
2026-05-07 10:06 33.77145 -6.08572 34971 ft 486 kts 76°
2026-05-07 10:06 33.78348 -6.00536 34971 ft 486 kts 76°
2026-05-07 10:07 33.79541 -5.92537 34971 ft 486 kts 76°
2026-05-07 10:07 33.80738 -5.84463 34971 ft 486 kts 76°
2026-05-07 10:08 33.81920 -5.76460 34971 ft 486 kts 76°
2026-05-07 10:08 33.83109 -5.68399 34971 ft 486 kts 76°
2026-05-07 10:09 33.84287 -5.60369 34971 ft 487 kts 76°
2026-05-07 10:09 33.85468 -5.52266 34971 ft 487 kts 76°
2026-05-07 10:10 33.86639 -5.44183 34970 ft 488 kts 77°
2026-05-07 10:10 33.87805 -5.36100 34970 ft 489 kts 77°
2026-05-07 10:11 33.88975 -5.27948 34970 ft 490 kts 78°
2026-05-07 10:11 33.90127 -5.19869 34971 ft 491 kts 78°
2026-05-07 10:12 33.91282 -5.11729 34981 ft 492 kts 79°
2026-05-07 10:12 33.92519 -5.03546 34994 ft 493 kts 76°
2026-05-07 10:13 33.94394 -4.95618 35001 ft 492 kts 69°
2026-05-07 10:13 33.96690 -4.87834 35003 ft 494 kts 69°
2026-05-07 10:14 33.99006 -4.80026 35001 ft 495 kts 69°
2026-05-07 10:14 34.01313 -4.72150 35001 ft 496 kts 69°
2026-05-07 10:15 34.03608 -4.64287 35002 ft 497 kts 69°
2026-05-07 10:15 34.05904 -4.56393 35000 ft 498 kts 70°
2026-05-07 10:16 34.08202 -4.48457 35003 ft 500 kts 70°
2026-05-07 10:16 34.10489 -4.40515 35000 ft 500 kts 69°
2026-05-07 10:17 34.12790 -4.32559 34998 ft 501 kts 71°
2026-05-07 10:17 34.15080 -4.24567 35003 ft 502 kts 71°
2026-05-07 10:18 34.17371 -4.16558 35000 ft 502 kts 71°
2026-05-07 10:18 34.19606 -4.08544 34997 ft 502 kts 72°
2026-05-07 10:19 34.21802 -4.00538 35000 ft 502 kts 72°
2026-05-07 10:19 34.24000 -3.92534 34999 ft 502 kts 72°
2026-05-07 10:20 34.26206 -3.84475 34992 ft 502 kts 72°
2026-05-07 10:20 34.28413 -3.76384 35009 ft 503 kts 72°
2026-05-07 10:21 34.30616 -3.68310 35004 ft 503 kts 72°
2026-05-07 10:21 34.32799 -3.60245 35000 ft 503 kts 72°
2026-05-07 10:22 34.34994 -3.52140 34998 ft 504 kts 72°
2026-05-07 10:22 34.37189 -3.44061 35003 ft 504 kts 72°
2026-05-07 10:23 34.39435 -3.35958 35003 ft 504 kts 72°
2026-05-07 10:23 34.41676 -3.27854 34998 ft 505 kts 73°
2026-05-07 10:24 34.43898 -3.19779 35001 ft 505 kts 73°
2026-05-07 10:24 34.46128 -3.11635 35004 ft 505 kts 73°
2026-05-07 10:25 34.48345 -3.03514 35004 ft 506 kts 73°
2026-05-07 10:25 34.50561 -2.95373 35004 ft 507 kts 73°
2026-05-07 10:26 34.52781 -2.87185 35005 ft 507 kts 73°
2026-05-07 10:26 34.54974 -2.79067 35005 ft 508 kts 73°
2026-05-07 10:27 34.57202 -2.70856 35004 ft 508 kts 73°
2026-05-07 10:27 34.59439 -2.62698 35005 ft 509 kts 73°
2026-05-07 10:28 34.61664 -2.54487 35006 ft 509 kts 73°
2026-05-07 10:28 34.63850 -2.46277 35004 ft 509 kts 73°
2026-05-07 10:29 34.66032 -2.38054 35005 ft 509 kts 74°
2026-05-07 10:29 34.68207 -2.29841 35004 ft 510 kts 75°
2026-05-07 10:30 34.71462 -2.17487 35005 ft 510 kts 75°
2026-05-07 10:30 34.73620 -2.09262 35005 ft 510 kts 75°
2026-05-07 10:31 34.75975 -2.01102 35005 ft 511 kts 69°
2026-05-07 10:31 34.79186 -1.93332 35005 ft 514 kts 59°
2026-05-07 10:32 34.83154 -1.86111 35005 ft 515 kts 55°
2026-05-07 10:32 34.86998 -1.78782 35005 ft 514 kts 62°
2026-05-07 10:33 34.90218 -1.70962 35005 ft 513 kts 66°
2026-05-07 10:33 34.93279 -1.63139 35005 ft 513 kts 66°
2026-05-07 10:34 34.96384 -1.55234 35005 ft 513 kts 66°
2026-05-07 10:34 34.99484 -1.47370 35004 ft 513 kts 65°
2026-05-07 10:35 35.02569 -1.39536 35004 ft 513 kts 65°
2026-05-07 10:35 35.05678 -1.31626 35003 ft 513 kts 66°
2026-05-07 10:36 35.08772 -1.23731 35005 ft 513 kts 66°
2026-05-07 10:36 35.11843 -1.15874 35004 ft 513 kts 66°
2026-05-07 10:37 35.14915 -1.07994 35005 ft 513 kts 66°
2026-05-07 10:37 35.17988 -1.00095 35005 ft 513 kts 66°
2026-05-07 10:38 35.21049 -0.92204 35005 ft 513 kts 66°
2026-05-07 10:38 35.24107 -0.84300 35005 ft 513 kts 66°
2026-05-07 10:39 35.27160 -0.76411 35005 ft 513 kts 66°
2026-05-07 10:39 35.30236 -0.68452 35005 ft 513 kts 66°
2026-05-07 10:40 35.33282 -0.60545 35005 ft 513 kts 66°
2026-05-07 10:40 35.36312 -0.52654 35005 ft 513 kts 66°
2026-05-07 10:41 35.39346 -0.44736 35005 ft 513 kts 66°
2026-05-07 10:41 35.42390 -0.36768 35002 ft 513 kts 66°
2026-05-07 10:42 35.45412 -0.28842 34997 ft 513 kts 67°
2026-05-07 10:42 35.48447 -0.20858 34995 ft 513 kts 67°
2026-05-07 10:43 35.51475 -0.12874 34995 ft 513 kts 67°
2026-05-07 10:43 35.54470 -0.04958 34994 ft 513 kts 67°
2026-05-07 10:44 35.57486 0.03017 34987 ft 515 kts 68°
2026-05-07 10:44 35.60512 0.11052 34993 ft 522 kts 69°
2026-05-07 10:45 35.63554 0.19188 34994 ft 523 kts 69°
2026-05-07 10:45 35.66610 0.27343 34994 ft 524 kts 69°
2026-05-07 10:46 35.69664 0.35506 34994 ft 524 kts 69°
2026-05-07 10:46 35.72714 0.43679 34994 ft 525 kts 69°
2026-05-07 10:47 35.75761 0.51877 34993 ft 527 kts 69°
2026-05-07 10:47 35.78823 0.60140 34992 ft 529 kts 69°
2026-05-07 10:48 35.81904 0.68465 34991 ft 531 kts 70°
2026-05-07 10:48 35.84965 0.76769 34993 ft 534 kts 70°
2026-05-07 10:49 35.88054 0.85165 34993 ft 536 kts 71°
2026-05-07 10:49 35.91132 0.93560 34993 ft 540 kts 71°
2026-05-07 10:50 35.94229 1.02025 34993 ft 543 kts 71°
2026-05-07 10:50 35.97361 1.10616 34992 ft 546 kts 71°
2026-05-07 10:51 36.00493 1.19235 34994 ft 550 kts 71°
2026-05-07 10:51 36.03601 1.27812 34993 ft 551 kts 71°
2026-05-07 10:52 36.06741 1.36488 34993 ft 554 kts 72°
2026-05-07 10:52 36.09817 1.45306 34993 ft 554 kts 76°
2026-05-07 10:53 36.12070 1.54336 34987 ft 546 kts 86°
2026-05-07 10:53 36.13348 1.63535 34989 ft 539 kts 92°
2026-05-07 10:54 36.14354 1.72776 34989 ft 540 kts 93°
2026-05-07 10:54 36.15410 1.82027 34986 ft 542 kts 93°
2026-05-07 10:55 36.16495 1.91281 34992 ft 543 kts 93°
2026-05-07 10:55 36.17574 2.00513 34989 ft 544 kts 93°
2026-05-07 10:56 36.18658 2.09831 34991 ft 544 kts 93°
2026-05-07 10:56 36.19724 2.19115 34989 ft 543 kts 92°
2026-05-07 10:57 36.20780 2.28378 34990 ft 544 kts 92°
2026-05-07 10:57 36.21835 2.37651 34997 ft 544 kts 92°
2026-05-07 10:58 36.22879 2.46930 34990 ft 543 kts 92°
2026-05-07 10:58 36.23916 2.56252 34967 ft 543 kts 92°
2026-05-07 10:59 36.24943 2.65529 34938 ft 543 kts 92°
2026-05-07 10:59 36.25977 2.74873 34931 ft 543 kts 92°
2026-05-07 11:00 36.26984 2.84118 34927 ft 543 kts 92°
2026-05-07 11:00 36.27993 2.93424 34926 ft 542 kts 91°
2026-05-07 11:01 36.28993 3.02703 34926 ft 542 kts 91°
2026-05-07 11:01 36.29980 3.11966 34925 ft 542 kts 91°
2026-05-07 11:02 36.30959 3.21227 34926 ft 542 kts 91°
2026-05-07 11:02 36.31937 3.30527 34926 ft 542 kts 91°
2026-05-07 11:03 36.32907 3.39845 34925 ft 543 kts 91°
2026-05-07 11:03 36.33866 3.49112 34926 ft 543 kts 91°
2026-05-07 11:04 36.34822 3.58446 34926 ft 544 kts 91°
2026-05-07 11:04 36.35767 3.67727 34923 ft 544 kts 91°
2026-05-07 11:05 36.36709 3.77060 34925 ft 544 kts 91°
2026-05-07 11:05 36.37651 3.86407 34926 ft 544 kts 91°
2026-05-07 11:06 36.38581 3.95721 34926 ft 544 kts 91°
2026-05-07 11:06 36.39502 4.05049 34925 ft 544 kts 91°
2026-05-07 11:07 36.40417 4.14384 34926 ft 545 kts 91°
2026-05-07 11:07 36.41331 4.23776 34926 ft 545 kts 91°
2026-05-07 11:08 36.42227 4.33077 34924 ft 545 kts 91°
2026-05-07 11:08 36.43126 4.42511 34926 ft 546 kts 91°
2026-05-07 11:09 36.44016 4.51894 34926 ft 546 kts 91°
2026-05-07 11:09 36.44893 4.61262 34925 ft 547 kts 91°
2026-05-07 11:10 36.45775 4.70708 34924 ft 547 kts 91°
2026-05-07 11:10 36.46639 4.80115 34925 ft 547 kts 91°
2026-05-07 11:11 36.47497 4.89510 34926 ft 547 kts 91°
2026-05-07 11:11 36.48295 4.98924 34925 ft 545 kts 94°
2026-05-07 11:12 36.48444 5.08275 34926 ft 538 kts 99°
2026-05-07 11:12 36.48309 5.17541 34926 ft 537 kts 99°
2026-05-07 11:13 36.48171 5.26892 34926 ft 538 kts 99°
2026-05-07 11:13 36.48054 5.36180 34926 ft 538 kts 99°
2026-05-07 11:14 36.47936 5.45522 34926 ft 537 kts 99°
2026-05-07 11:14 36.47811 5.54778 34925 ft 537 kts 99°
2026-05-07 11:15 36.47675 5.64077 34926 ft 538 kts 98°
2026-05-07 11:15 36.47535 5.73425 34925 ft 536 kts 99°
2026-05-07 11:16 36.47385 5.82660 34925 ft 536 kts 99°
2026-05-07 11:16 36.47231 5.91987 34926 ft 536 kts 99°
2026-05-07 11:17 36.47073 6.01225 34925 ft 536 kts 99°
2026-05-07 11:17 36.46897 6.10554 34926 ft 537 kts 99°
2026-05-07 11:18 36.46722 6.19851 34926 ft 537 kts 99°
2026-05-07 11:18 36.46538 6.29155 34926 ft 537 kts 99°
2026-05-07 11:19 36.46345 6.38471 34926 ft 537 kts 99°
2026-05-07 11:19 36.46144 6.47780 34925 ft 538 kts 98°
2026-05-07 11:20 36.45934 6.57100 34926 ft 538 kts 98°
2026-05-07 11:20 36.45721 6.66371 34923 ft 538 kts 99°
2026-05-07 11:21 36.45500 6.75657 34924 ft 537 kts 99°
2026-05-07 11:21 36.45268 6.84983 34921 ft 538 kts 99°
2026-05-07 11:22 36.45034 6.94296 34920 ft 538 kts 98°
2026-05-07 11:22 36.44787 7.03567 34917 ft 539 kts 99°
2026-05-07 11:23 36.44538 7.12824 34915 ft 538 kts 98°
2026-05-07 11:23 36.44282 7.22177 34908 ft 538 kts 98°
2026-05-07 11:24 36.44014 7.31477 34913 ft 538 kts 98°
2026-05-07 11:24 36.43740 7.40754 34912 ft 538 kts 98°
2026-05-07 11:25 36.43469 7.49854 34924 ft 537 kts 97°
2026-05-07 11:25 36.43185 7.59107 34910 ft 536 kts 97°
2026-05-07 11:26 36.42891 7.68379 34913 ft 536 kts 98°
2026-05-07 11:26 36.42591 7.77627 34915 ft 535 kts 98°
2026-05-07 11:27 36.42286 7.86866 34918 ft 535 kts 98°
2026-05-07 11:27 36.41969 7.96097 34916 ft 534 kts 98°
2026-05-07 11:28 36.41649 8.05290 34924 ft 535 kts 98°
2026-05-07 11:28 36.41323 8.14543 34913 ft 535 kts 98°
2026-05-07 11:29 36.40985 8.23780 34908 ft 535 kts 98°
2026-05-07 11:29 36.40630 8.33019 34914 ft 534 kts 99°
2026-05-07 11:30 36.39710 8.42150 34919 ft 527 kts 107°
2026-05-07 11:30 36.38299 8.51022 34921 ft 527 kts 108°
2026-05-07 11:31 36.36849 8.59929 34915 ft 528 kts 108°
2026-05-07 11:31 36.35410 8.68943 34915 ft 528 kts 108°
2026-05-07 11:32 36.33246 8.82399 34919 ft 528 kts 108°
2026-05-07 11:33 36.31801 8.91361 34906 ft 530 kts 108°
2026-05-07 11:33 36.30345 9.00333 34922 ft 530 kts 108°
2026-05-07 11:34 36.28881 9.09299 34925 ft 530 kts 108°
2026-05-07 11:34 36.27413 9.18257 34925 ft 530 kts 108°
2026-05-07 11:35 36.25937 9.27228 34926 ft 530 kts 107°
2026-05-07 11:35 36.24618 9.36260 34926 ft 533 kts 103°
2026-05-07 11:36 36.23564 9.45338 34926 ft 532 kts 103°
2026-05-07 11:36 36.22511 9.54405 34926 ft 532 kts 103°
2026-05-07 11:37 36.21441 9.63451 34927 ft 531 kts 103°
2026-05-07 11:37 36.20351 9.72548 34924 ft 531 kts 103°
2026-05-07 11:38 36.19255 9.81593 34925 ft 530 kts 103°
2026-05-07 11:38 36.18159 9.90615 34925 ft 530 kts 103°
2026-05-07 11:39 36.17052 9.99645 34920 ft 530 kts 103°
2026-05-07 11:39 36.15934 10.08699 34914 ft 529 kts 104°
2026-05-07 11:40 36.14367 10.17524 34912 ft 523 kts 112°
2026-05-07 11:40 36.12116 10.26076 34912 ft 521 kts 115°
2026-05-07 11:41 36.09791 10.34611 34911 ft 523 kts 114°
2026-05-07 11:41 36.07974 10.43336 34912 ft 529 kts 105°
2026-05-07 11:42 36.07067 10.52404 34912 ft 535 kts 96°
2026-05-07 11:42 36.06819 10.61590 34912 ft 536 kts 94°
2026-05-07 11:43 36.06609 10.70826 34903 ft 537 kts 95°
2026-05-07 11:43 36.06350 10.80032 34904 ft 537 kts 96°
2026-05-07 11:44 36.06071 10.89258 34907 ft 536 kts 95°
2026-05-07 11:44 36.05785 10.98482 34907 ft 536 kts 96°
2026-05-07 11:45 36.05494 11.07654 34901 ft 535 kts 96°
2026-05-07 11:45 36.05195 11.16852 34898 ft 534 kts 95°
2026-05-07 11:46 36.04884 11.26046 34903 ft 534 kts 95°
2026-05-07 11:46 36.04565 11.35226 34907 ft 533 kts 95°
2026-05-07 11:47 36.04254 11.44371 34910 ft 532 kts 95°
2026-05-07 11:47 36.04073 11.53492 34906 ft 532 kts 92°
2026-05-07 11:48 36.04158 11.62635 34906 ft 531 kts 91°
2026-05-07 11:48 36.04258 11.71739 34897 ft 530 kts 92°
2026-05-07 11:49 36.04332 11.80835 34793 ft 530 kts 92°
2026-05-07 11:49 36.04367 11.85421 34535 ft 528 kts 92°
2026-05-07 11:49 36.04399 11.89911 34272 ft 524 kts 92°
2026-05-07 11:49 36.04430 11.94383 34017 ft 522 kts 92°
2026-05-07 11:50 36.04457 11.98860 33756 ft 519 kts 92°
2026-05-07 11:50 36.04481 12.03321 33513 ft 518 kts 92°
2026-05-07 11:50 36.04499 12.07758 33258 ft 518 kts 92°
2026-05-07 11:50 36.04520 12.12255 32944 ft 520 kts 92°
2026-05-07 11:51 36.04542 12.16693 32453 ft 521 kts 92°
2026-05-07 11:51 36.04561 12.21209 31802 ft 522 kts 92°
2026-05-07 11:51 36.04578 12.25722 31076 ft 525 kts 91°
2026-05-07 11:51 36.04591 12.30219 30330 ft 527 kts 91°
2026-05-07 11:52 36.04603 12.34751 29531 ft 531 kts 91°
2026-05-07 11:52 36.04613 12.39312 28759 ft 533 kts 91°
2026-05-07 11:52 36.04621 12.43925 27964 ft 534 kts 91°
2026-05-07 11:52 36.04631 12.48528 27185 ft 535 kts 91°
2026-05-07 11:53 36.04637 12.53080 26364 ft 535 kts 90°
2026-05-07 11:53 36.04643 12.57667 25539 ft 535 kts 90°
2026-05-07 11:53 36.04647 12.62259 24685 ft 534 kts 90°
2026-05-07 11:53 36.04649 12.66849 23860 ft 531 kts 90°
2026-05-07 11:54 36.04651 12.71369 23299 ft 522 kts 91°
2026-05-07 11:54 36.04653 12.75868 22702 ft 515 kts 91°
2026-05-07 11:54 36.04651 12.80253 22114 ft 509 kts 91°
2026-05-07 11:54 36.04647 12.84571 21502 ft 503 kts 91°
2026-05-07 11:55 36.04640 12.88908 20811 ft 499 kts 91°
2026-05-07 11:55 36.04632 12.93135 20100 ft 496 kts 91°
2026-05-07 11:55 36.04621 12.97362 19378 ft 489 kts 91°
2026-05-07 11:55 36.04610 13.01553 18644 ft 479 kts 92°
2026-05-07 11:56 36.04598 13.05602 17931 ft 470 kts 92°
2026-05-07 11:56 36.04583 13.09616 17218 ft 462 kts 92°
2026-05-07 11:56 36.04567 13.13521 16520 ft 454 kts 92°
2026-05-07 11:56 36.04551 13.17435 15817 ft 447 kts 92°
2026-05-07 11:57 36.04534 13.21239 15130 ft 445 kts 92°
2026-05-07 11:57 36.04519 13.25056 14517 ft 443 kts 92°
2026-05-07 11:57 36.04505 13.28844 14023 ft 436 kts 92°
2026-05-07 11:57 36.04490 13.32554 13583 ft 429 kts 92°
2026-05-07 11:58 36.04474 13.36221 13162 ft 422 kts 92°
2026-05-07 11:58 36.04455 13.39837 12740 ft 420 kts 92°
2026-05-07 11:58 36.04435 13.43425 12249 ft 417 kts 92°
2026-05-07 11:58 36.04414 13.46990 11729 ft 414 kts 92°
2026-05-07 11:59 36.04389 13.50542 11236 ft 410 kts 92°
2026-05-07 11:59 36.04365 13.54017 11021 ft 399 kts 91°
2026-05-07 11:59 36.04343 13.57386 10811 ft 387 kts 91°
2026-05-07 11:59 36.04321 13.60677 10599 ft 376 kts 91°
2026-05-07 12:00 36.04297 13.63878 10354 ft 366 kts 91°
2026-05-07 12:00 36.04274 13.66957 10217 ft 353 kts 92°
2026-05-07 12:00 36.04251 13.69961 10073 ft 341 kts 92°
2026-05-07 12:00 36.04227 13.72831 9935 ft 329 kts 92°
2026-05-07 12:01 36.04203 13.75603 9790 ft 318 kts 92°
2026-05-07 12:01 36.04178 13.78359 9401 ft 317 kts 91°
2026-05-07 12:01 36.04153 13.81053 9024 ft 315 kts 91°
2026-05-07 12:01 36.04128 13.83771 8651 ft 313 kts 91°
2026-05-07 12:02 36.04105 13.86423 8290 ft 310 kts 91°
2026-05-07 12:02 36.04081 13.89080 7928 ft 308 kts 91°
2026-05-07 12:02 36.04056 13.91739 7563 ft 305 kts 91°
2026-05-07 12:02 36.04031 13.94361 7205 ft 303 kts 92°
2026-05-07 12:03 36.04005 13.96951 6850 ft 301 kts 92°
2026-05-07 12:03 36.03978 13.99534 6496 ft 298 kts 92°
2026-05-07 12:03 36.03951 14.02085 6172 ft 294 kts 92°
2026-05-07 12:03 36.03925 14.04563 5929 ft 288 kts 92°
2026-05-07 12:04 36.03897 14.07023 5591 ft 283 kts 92°
2026-05-07 12:04 36.03870 14.09444 5272 ft 276 kts 92°
2026-05-07 12:04 36.03842 14.11781 4994 ft 272 kts 92°
2026-05-07 12:04 36.03815 14.14118 4643 ft 270 kts 92°
2026-05-07 12:05 36.03786 14.16449 4303 ft 268 kts 92°
2026-05-07 12:05 36.03757 14.18714 4068 ft 260 kts 94°
2026-05-07 12:05 36.03549 14.20866 4016 ft 245 kts 104°
2026-05-07 12:05 36.03088 14.22826 3992 ft 228 kts 111°
2026-05-07 12:06 36.02559 14.24617 3978 ft 212 kts 112°
2026-05-07 12:06 36.02031 14.26279 4045 ft 206 kts 115°
2026-05-07 12:06 36.01395 14.27830 4010 ft 193 kts 123°
2026-05-07 12:06 36.00631 14.29120 3988 ft 184 kts 131°
2026-05-07 12:07 35.99786 14.30310 3990 ft 184 kts 134°
2026-05-07 12:07 35.98898 14.31478 3882 ft 185 kts 135°
2026-05-07 12:07 35.98010 14.32602 3649 ft 182 kts 135°
2026-05-07 12:07 35.97122 14.33705 3407 ft 179 kts 135°
2026-05-07 12:08 35.96241 14.34792 3169 ft 177 kts 135°
2026-05-07 12:08 35.95367 14.35865 2934 ft 173 kts 134°
2026-05-07 12:08 35.94532 14.36893 2724 ft 165 kts 134°
2026-05-07 12:08 35.93744 14.37865 2485 ft 157 kts 134°
2026-05-07 12:09 35.92978 14.38811 2276 ft 154 kts 135°
2026-05-07 12:09 35.92215 14.39754 2107 ft 155 kts 135°
2026-05-07 12:09 35.91467 14.40679 1879 ft 153 kts 135°
2026-05-07 12:09 35.90707 14.41620 1664 ft 153 kts 136°
2026-05-07 12:10 35.89952 14.42555 1495 ft 153 kts 137°
2026-05-07 12:10 35.89214 14.43468 1295 ft 150 kts 137°
2026-05-07 12:10 35.88475 14.44389 1052 ft 150 kts 137°
2026-05-07 12:10 35.87736 14.45314 850 ft 150 kts 137°
2026-05-07 12:11 35.87004 14.46215 690 ft 150 kts 137°
2026-05-07 12:11 35.86266 14.47124 483 ft 150 kts 138°
2026-05-07 12:11 35.85531 14.48027 286 ft 147 kts 137°
2026-05-07 12:11 35.84867 14.48844 260 ft 119 kts 137°
2026-05-07 12:12 35.84398 14.49422 251 ft 69 kts 135°
2026-05-07 12:12 35.84131 14.49756 251 ft 49 kts 133°
2026-05-07 12:12 35.83902 14.50042 251 ft 44 kts 136°
2026-05-07 12:12 35.83694 14.50296 246 ft 35 kts 133°
2026-05-07 12:13 35.83571 14.50491 242 ft 25 kts 112°
2026-05-07 12:13 35.83536 14.50645 240 ft 14 kts 104°
2026-05-07 12:13 35.83508 14.50727 239 ft 10 kts 130°
2026-05-07 12:13 35.83454 14.50725 239 ft 9 kts 235°
2026-05-07 12:14 35.83455 14.50640 239 ft 10 kts 285°
2026-05-07 12:14 35.83490 14.50555 240 ft 11 kts 309°
2026-05-07 12:14 35.83548 14.50479 242 ft 12 kts 314°
2026-05-07 12:14 35.83614 14.50397 245 ft 15 kts 314°
2026-05-07 12:15 35.83700 14.50290 246 ft 19 kts 315°
2026-05-07 12:15 35.83802 14.50165 249 ft 21 kts 314°
2026-05-07 12:15 35.83915 14.50026 251 ft 24 kts 315°
2026-05-07 12:15 35.84040 14.49866 251 ft 27 kts 314°
2026-05-07 12:16 35.84189 14.49733 251 ft 25 kts 333°
2026-05-07 12:16 35.84350 14.49664 251 ft 21 kts 345°
2026-05-07 12:16 35.84479 14.49610 249 ft 18 kts 329°
2026-05-07 12:16 35.84547 14.49544 249 ft 8 kts 321°
2026-05-07 12:17 35.84602 14.49548 249 ft 9 kts 43°
2026-05-07 12:17 35.84647 14.49580 248 ft 7 kts 352°
2026-05-07 12:17 35.84703 14.49575 248 ft 6 kts 360°
2026-05-07 12:17 35.84747 14.49575 248 ft 5 kts 359°
2026-05-07 12:18 35.84761 14.49574 248 ft 0 kts 359°
2026-05-07 12:18 35.84764 14.49574 248 ft 0 kts 359°